Terminal Aerodrome Forecast
Issued by NWS Mt. Holly, NJ

Home | Current Version | Previous Version | Text Only | Print | Product List | Glossary On
Versions: 1 2 3 4 5 6 7 8 9 10 11 12 13 14 15 16 17 18 19 20
000
FTUS41 KPHI 300521
TAFILG
TAF
KILG 300521Z 3006/0106 06015G25KT P6SM OVC015
      TEMPO 3006/3010 5SM SHRA BKN007 OVC015
     FM301500 04014G24KT P6SM OVC009
     FM010000 05008KT P6SM OVC007=

USA.gov is the U.S. government's official web portal to all federal, state and local government web resources and services.